H1 CPF 2 NER 2021 7 21 9 202 01 glonass138 H2 1805301 9138 43508 2021 7 21 0 0 0 2021 7 24 23 45 0 900 1 1 0 0 0 1 H9 10 0 59416 0.00000 0 -23197353.252 -8972444.052 5722947.156 10 0 59416 900.00000 0 -22363058.744 -8617229.571 8778033.302 10 0 59416 1800.00000 0 -21144346.754 -8266687.120 11662891.473 10 0 59416 2700.00000 0 -19563870.351 -7975174.410 14321600.388 10 0 59416 3600.00000 0 -17656571.147 -7792366.012 16702627.951 10 0 59416 4500.00000 0 -15468385.170 -7760972.702 18759823.650 10 0 59416 5400.00000 0 -13054505.028 -7914765.176 20453306.772 10 0 59416 6300.00000 0 -10477269.861 -8276985.397 21750233.971 10 0 59416 7200.00000 0 -7803770.080 -8859212.442 22625431.978 10 0 59416 8100.00000 0 -5103265.362 -9660730.848 23061883.861 10 0 59416 9000.00000 0 -2444521.888 -10668428.638 23051059.860 10 0 59416 9900.00000 0 106821.753 -11857230.198 22593086.490 10 0 59416 10800.00000 0 2490751.942 -13191047.114 21696750.520 10 0 59416 11700.00000 0 4655138.091 -14624208.516 20379337.228 10 0 59416 12600.00000 0 6557658.409 -16103312.409 18666305.309 10 0 59416 13500.00000 0 8167314.068 -17569421.823 16590803.725 10 0 59416 14400.00000 0 9465469.217 -18960514.826 14193038.753 10 0 59416 15300.00000 0 10446373.775 -20214086.427 11519502.455 10 0 59416 16200.00000 0 11117147.455 -21269793.496 8622076.596 10 0 59416 17100.00000 0 11497225.971 -22072031.489 5557028.668 10 0 59416 18000.00000 0 11617292.937 -22572334.041 2383919.256 10 0 59416 18900.00000 0 11517742.899 -22731493.548 -835558.047 10 0 59416 19800.00000 0 11246740.893 -22521312.221 -4038781.281 10 0 59416 20700.00000 0 10857961.209 -21925908.543 -7163425.115 10 0 59416 21600.00000 0 10408101.945 -20942522.727 -10148681.515 10 0 59416 22500.00000 0 9954281.559 -19581786.024 -12936451.360 10 0 59416 23400.00000 0 9551428.707 -17867441.539 -15472482.772 10 0 59416 24300.00000 0 9249776.976 -15835527.502 -17707433.190 10 0 59416 25200.00000 0 9092571.484 -13533056.739 -19597833.946 10 0 59416 26100.00000 0 9114085.157 -11016247.490 -21106938.156 10 0 59416 27000.00000 0 9338029.169 -8348379.484 -22205435.416 10 0 59416 27900.00000 0 9776425.053 -5597364.794 -22872019.608 10 0 59416 28800.00000 0 10428986.305 -2833134.895 -23093799.114 10 0 59416 29700.00000 0 11283035.610 -124952.662 -22866542.050 10 0 59416 30600.00000 0 12313961.170 2461239.139 -22194752.262 10 0 59416 31500.00000 0 13486192.825 4865322.951 -21091575.165 10 0 59416 32400.00000 0 14754656.810 7035261.758 -19578535.735 10 0 59416 33300.00000 0 16066647.912 8929011.870 -17685114.057 10 0 59416 34200.00000 0 17364040.220 10516014.767 -15448166.993 10 0 59416 35100.00000 0 18585743.518 11778207.391 -12911207.368 10 0 59416 36000.00000 0 19670302.040 12710510.435 -10123554.774 10 0 59416 36900.00000 0 20558526.311 13320775.959 -7139374.664 10 0 59416 37800.00000 0 21196047.435 13629198.387 -4016624.517 10 0 59416 38700.00000 0 21535686.458 13667215.311 -815927.618 10 0 59416 39600.00000 0 21539539.166 13475945.836 2400603.440 10 0 59416 40500.00000 0 21180688.735 13104233.519 5570570.589 10 0 59416 41400.00000 0 20444474.220 12606377.359 8632498.093 10 0 59416 42300.00000 0 19329261.554 12039647.157 11527020.821 10 0 59416 43200.00000 0 17846684.551 11461688.411 14198030.184 10 0 59416 44100.00000 0 16021345.480 10927926.225 16593755.889 10 0 59416 45000.00000 0 13889987.293 10489077.540 18667762.982 10 0 59416 45900.00000 0 11500171.405 10188876.171 20379845.566 10 0 59416 46800.00000 0 8908515.254 10062106.118 21696800.603 10 0 59416 47700.00000 0 6178562.028 10133025.599 22593067.502 10 0 59416 48600.00000 0 3378369.879 10414247.952 23051221.762 10 0 59416 49500.00000 0 577919.393 10906126.586 23062313.554 10 0 59416 50400.00000 0 -2153554.378 11596670.237 22626044.829 10 0 59416 51300.00000 0 -4750195.989 12461992.848 21750781.404 10 0 59416 52200.00000 0 -7152021.725 13467280.205 20453399.310 10 0 59416 53100.00000 0 -9307167.236 14568233.930 18758967.605 10 0 59416 54000.00000 0 -11173798.151 15712933.446 16700272.843 10 0 59416 54900.00000 0 -12721604.716 16844038.804 14317193.268 10 0 59416 55800.00000 0 -13932818.478 17901242.674 11655933.810 10 0 59416 56700.00000 0 -14802708.805 18823868.886 8768135.770 10 0 59416 57600.00000 0 -15339538.621 19553508.204 5709877.715 10 0 59416 58500.00000 0 -15563981.351 20036579.940 2540586.692 10 0 59416 59400.00000 0 -15508023.888 20226710.614 -678119.127 10 0 59416 60300.00000 0 -15213402.192 20086828.213 -3883633.530 10 0 59416 61200.00000 0 -14729636.129 19590882.321 -7013586.924 10 0 59416 62100.00000 0 -14111747.317 18725116.135 -10007067.880 10 0 59416 63000.00000 0 -13417757.432 17488835.221 -12805816.827 10 0 59416 63900.00000 0 -12706073.726 15894639.410 -15355367.579 10 0 59416 64800.00000 0 -12032873.393 13968106.907 -17606113.707 10 0 59416 65700.00000 0 -11449598.278 11746943.039 -19514278.369 10 0 59416 66600.00000 0 -11000666.569 9279628.777 -21042768.312 10 0 59416 67500.00000 0 -10721498.655 6623625.208 -22161895.417 10 0 59416 68400.00000 0 -10636940.756 3843208.745 -22849951.913 10 0 59416 69300.00000 0 -10760152.842 1007027.303 -23093628.462 10 0 59416 70200.00000 0 -11092007.553 -1814520.904 -22888267.506 10 0 59416 71100.00000 0 -11621025.118 -4551977.140 -22237947.524 10 0 59416 72000.00000 0 -12323846.591 -7139468.957 -21155397.100 10 0 59416 72900.00000 0 -13166225.048 -9517204.612 -19661740.967 10 0 59416 73800.00000 0 -14104492.606 -11633712.263 -17786083.286 10 0 59416 74700.00000 0 -15087441.127 -13447731.731 -15564936.591 10 0 59416 75600.00000 0 -16058537.147 -14929681.413 -13041507.630 10 0 59416 76500.00000 0 -16958377.529 -16062640.670 -10264854.094 10 0 59416 77400.00000 0 -17727282.241 -16842808.184 -7288928.786 10 0 59416 78300.00000 0 -18307914.933 -17279418.880 -4171529.863 10 0 59416 79200.00000 0 -18647820.826 -17394124.505 -973177.671 10 0 59416 80100.00000 0 -18701774.930 -17219865.441 2244059.825 10 0 59416 81000.00000 0 -18433841.645 -16799282.524 5417770.095 10 0 59416 81900.00000 0 -17819058.951 -16182736.849 8486404.209 10 0 59416 82800.00000 0 -16844676.178 -15426021.713 11390466.608 10 0 59416 83700.00000 0 -15510893.152 -14587863.591 14073663.623 10 0 59416 84600.00000 0 -13831069.231 -13727317.530 16483988.851 10 0 59416 85500.00000 0 -11831392.989 -12901166.569 18574724.762 10 0 59417 0.00000 0 -9550025.609 -12161434.196 20305341.819 10 0 59417 900.00000 0 -7035752.369 -11553114.310 21642278.591 10 0 59417 1800.00000 0 -4346198.213 -11112212.633 22559588.016 10 0 59417 2700.00000 0 -1545679.001 -10864183.111 23039438.500 10 0 59417 3600.00000 0 1297222.759 -10822822.729 23072460.255 10 0 59417 4500.00000 0 4112258.976 -10989672.503 22657930.413 10 0 59417 5400.00000 0 6830187.269 -11353949.371 21803793.250 10 0 59417 6300.00000 0 9385403.055 -11893012.593 20526514.642 10 0 59417 7200.00000 0 11718424.240 -12573345.785 18850772.814 10 0 59417 8100.00000 0 13778126.182 -13352014.250 16808990.417 10 0 59417 9000.00000 0 15523634.639 -14178537.269 14440715.857 10 0 59417 9900.00000 0 16925798.066 -14997097.347 11791864.811 10 0 59417 10800.00000 0 17968178.050 -15748993.969 8913835.674 10 0 59417 11700.00000 0 18647516.477 -16375238.566 5862515.347 10 0 59417 12600.00000 0 18973659.798 -16819181.073 2697194.343 10 0 59417 13500.00000 0 18968943.691 -17029056.508 -520587.756 10 0 59417 14400.00000 0 18667064.193 -16960343.024 -3728243.728 10 0 59417 15300.00000 0 18111483.216 -16577830.523 -6863362.925 10 0 59417 16200.00000 0 17353436.369 -15857310.960 -9864933.597 10 0 59417 17100.00000 0 16449627.894 -14786817.414 -12674538.578 10 0 59417 18000.00000 0 15459711.022 -13367358.188 -15237499.973 10 0 59417 18900.00000 0 14443661.098 -11613113.662 -17503949.762 10 0 59417 19800.00000 0 13459153.293 -9551086.425 -19429804.854 10 0 59417 20700.00000 0 12559056.336 -7220218.551 -20977627.166 10 0 59417 21600.00000 0 11789148.505 -4670012.306 -22117351.967 10 0 59417 22500.00000 0 11186152.372 -1958711.476 -22826870.498 10 0 59417 23400.00000 0 10776171.076 848881.003 -23092455.881 10 0 59417 24300.00000 0 10573591.600 3683858.438 -22909024.600 10 0 59417 25200.00000 0 10580500.652 6475836.864 -22280229.030 10 0 59417 26100.00000 0 10786637.041 9155643.619 -21218379.759 10 0 59417 27000.00000 0 11169881.714 11657956.727 -19744199.719 10 0 59417 27900.00000 0 11697264.057 13923786.030 -17886415.238 10 0 59417 28800.00000 0 12326441.317 15902693.573 -15681192.270 10 0 59417 29700.00000 0 13007588.171 17554661.906 -13171428.936 10 0 59417 30600.00000 0 13685616.286 18851533.627 -10405918.202 10 0 59417 31500.00000 0 14302629.830 19777963.407 -7438397.150 10 0 59417 32400.00000 0 14800513.075 20331844.189 -4326501.380 10 0 59417 33300.00000 0 15123540.686 20524191.212 -1130644.954 10 0 59417 34200.00000 0 15220900.401 20378490.183 2087152.137 10 0 59417 35100.00000 0 15049021.576 19929538.289 5264466.136 10 0 59417 36000.00000 0 14573611.264 19221827.931 8339677.957 10 0 59417 36900.00000 0 13771311.897 18307541.997 11253164.364 10 0 59417 37800.00000 0 12630910.532 17244245.601 13948449.016 10 0 59417 38700.00000 0 11154048.402 16092371.631 16373291.435 10 0 59417 39600.00000 0 9355400.471 14912605.786 18480693.164 10 0 59417 40500.00000 0 7262316.620 13763280.678 20229802.354 10 0 59417 41400.00000 0 4913938.424 12697887.898 21586699.962 10 0 59417 42300.00000 0 2359827.168 11762811.831 22525053.009 10 0 59417 43200.00000 0 -341841.217 10995379.581 23026622.946 10 0 59417 44100.00000 0 -3126440.842 10422308.158 23081619.731 10 0 59417 45000.00000 0 -5925331.761 10058613.587 22688894.956 10 0 59417 45900.00000 0 -8668467.635 9907027.437 21855970.175 10 0 59417 46800.00000 0 -11287068.388 9957945.308 20598899.468 10 0 59417 47700.00000 0 -13716248.092 10189909.717 18941968.135 10 0 59417 48600.00000 0 -15897489.909 10570607.632 16917232.429 10 0 59417 49500.00000 0 -17780865.878 11058341.307 14563908.077 10 0 59417 50400.00000 0 -19326909.332 11603911.139 11927618.426 10 0 59417 51300.00000 0 -20508061.979 12152831.677 9059515.751 10 0 59417 52200.00000 0 -21309635.061 12647787.522 6015292.033 10 0 59417 53100.00000 0 -21730244.080 13031225.316 2854098.058 10 0 59417 54000.00000 0 -21781698.690 13247971.770 -362608.253 10 0 59417 54900.00000 0 -21488352.325 13247766.160 -3572261.579 10 0 59417 55800.00000 0 -20885938.988 12987598.995 -6712412.935 10 0 59417 56700.00000 0 -20019946.583 12433756.507 -9721952.763 10 0 59417 57600.00000 0 -18943595.925 11563482.967 -12542308.563 10 0 59417 58500.00000 0 -17715511.396 10366189.070 -15118592.708 10 0 59417 59400.00000 0 -16397182.363 8844153.906 -17400677.228 10 0 59417 60300.00000 0 -15050323.223 7012689.588 -19344174.046 10 0 59417 61200.00000 0 -13734244.076 4899760.546 -20911301.097 10 0 59417 62100.00000 0 -12503343.310 2545072.530 -22071617.468 10 0 59417 63000.00000 0 -11404827.836 -1331.259 -22802613.402 10 0 59417 63900.00000 0 -10476756.851 -2680908.654 -23090144.061 10 0 59417 64800.00000 0 -9746490.900 -5428815.343 -22928699.149 10 0 59417 65700.00000 0 -9229610.753 -8176368.845 -22321503.733 10 0 59417 66600.00000 0 -8929350.599 -10853677.298 -21280448.853 10 0 59417 67500.00000 0 -8836568.270 -13392324.119 -19825853.766 10 0 59417 68400.00000 0 -8930252.605 -15727997.370 -17986064.821 10 0 59417 69300.00000 0 -9178545.452 -17802954.957 -15796899.040 10 0 59417 70200.00000 0 -9540234.253 -19568223.831 -13300943.416 10 0 59417 71100.00000 0 -9966651.340 -20985442.472 -10546723.631 10 0 59417 72000.00000 0 -10403899.136 -22028270.791 -7587758.483 10 0 59417 72900.00000 0 -10795306.727 -22683309.735 -4481518.509 10 0 59417 73800.00000 0 -11084013.641 -22950493.418 -1288309.075 10 0 59417 74700.00000 0 -11215571.408 -22842938.514 1929900.111 10 0 59417 75600.00000 0 -11140452.807 -22386258.540 5110676.279 10 0 59417 76500.00000 0 -10816362.657 -21617372.819 8192332.306 10 0 59417 77400.00000 0 -10210252.526 -20582861.068 11115119.301 10 0 59417 78300.00000 0 -9299954.172 -19336933.340 13822380.179 10 0 59417 79200.00000 0 -8075362.621 -17939100.910 16261642.160 10 0 59417 80100.00000 0 -6539118.623 -16451645.946 18385627.462 10 0 59417 81000.00000 0 -4706761.151 -14936995.836 20153163.268 10 0 59417 81900.00000 0 -2606342.493 -13455111.737 21529974.075 10 0 59417 82800.00000 0 -277520.869 -12061000.057 22489341.778 10 0 59417 83700.00000 0 2229833.069 -10802450.259 23012621.368 10 0 59417 84600.00000 0 4857459.481 -9718092.769 23089602.755 10 0 59417 85500.00000 0 7540888.110 -8835857.605 22718711.895 10 0 59418 0.00000 0 10211883.791 -8171897.523 21907047.296 10 0 59418 900.00000 0 12801058.794 -7730020.668 20670250.566 10 0 59418 1800.00000 0 15240544.692 -7501655.650 19032213.250 10 0 59418 2700.00000 0 17466613.664 -7466351.896 17024624.053 10 0 59418 3600.00000 0 19422141.479 -7592793.038 14686364.614 10 0 59418 4500.00000 0 21058809.267 -7840282.125 12062764.209 10 0 59418 5400.00000 0 22338952.641 -8160635.891 9204726.920 10 0 59418 6300.00000 0 23236980.608 -8500408.459 6167747.382 10 0 59418 7200.00000 0 23740304.401 -8803350.454 3010833.891 10 0 59418 8100.00000 0 23849736.925 -9012999.157 -204640.334 10 0 59418 9000.00000 0 23579345.625 -9075289.322 -3416135.101 10 0 59418 9900.00000 0 22955764.749 -8941073.123 -6561166.393 10 0 59418 10800.00000 0 22016995.979 -8568441.212 -9578530.088 10 0 59418 11700.00000 0 20810748.187 -7924745.155 -12409501.456 10 0 59418 12600.00000 0 19392386.767 -6988234.184 -14998985.980 10 0 59418 13500.00000 0 17822579.580 -5749235.578 -17296598.296 10 0 59418 14400.00000 0 16164739.340 -4210827.429 -19257647.541 10 0 59418 15300.00000 0 14482370.802 -2388974.238 -20844009.512 10 0 59418 16200.00000 0 12836434.826 -312118.572 -22024868.558 10 0 59418 17100.00000 0 11282840.336 1979754.985 -22777314.958 10 0 59418 18000.00000 0 9870169.505 4436544.985 -23086786.509 10 0 59418 18900.00000 0 8637731.213 6999888.368 -22947346.273 10 0 59418 19800.00000 0 7614023.683 9605368.813 -22361791.685 10 0 59418 20700.00000 0 6815669.821 12184986.413 -21341593.442 10 0 59418 21600.00000 0 6246868.587 14669786.173 -19906665.885 10 0 59418 22500.00000 0 5899384.067 16992536.288 -18084973.698 10 0 59418 23400.00000 0 5753071.221 19090345.035 -15911982.873 10 0 59418 24300.00000 0 5776914.786 20907107.833 -13429966.792 10 0 59418 25200.00000 0 5930536.284 22395683.112 -10687181.010 10 0 59418 26100.00000 0 6166104.475 23519706.900 -7736922.902 10 0 59418 27000.00000 0 6430567.728 24254971.218 -4636494.559 10 0 59418 27900.00000 0 6668113.310 24590309.596 -1446089.121 10 0 59418 28800.00000 0 6822749.159 24527953.603 1772377.573 10 0 59418 29700.00000 0 6840898.679 24083346.486 4956467.262 10 0 59418 30600.00000 0 6673898.637 23284422.625 8044428.133 10 0 59418 31500.00000 0 6280294.514 22170383.859 10976388.725 10 0 59418 32400.00000 0 5627836.228 20790024.589 13695513.937 10 0 59418 33300.00000 0 4695089.846 19199676.255 16149101.047 10 0 59418 34200.00000 0 3472597.057 17460857.434 18289594.890 10 0 59418 35100.00000 0 1963533.093 15637727.766 20075503.212 10 0 59418 36000.00000 0 183834.604 13794451.766 21472195.183 10 0 59418 36900.00000 0 -1838208.921 11992582.076 22452568.282 10 0 59418 37800.00000 0 -4062884.501 10288570.645 22997571.336 10 0 59418 38700.00000 0 -6440468.643 8731510.779 23096574.076 10 0 59418 39600.00000 0 -8913066.712 7361203.487 22747576.249 10 0 59418 40500.00000 0 -11416803.957 6206627.978 21957252.206 10 0 59418 41400.00000 0 -13884278.747 5284879.526 20740829.678 10 0 59418 42300.00000 0 -16247177.428 4600618.685 19121804.383 10 0 59418 43200.00000 0 -18438943.264 4146054.587 17131495.060 10 0 59418 44100.00000 0 -20397389.201 3901462.967 14808446.420 10 0 59418 45000.00000 0 -22067145.952 3836217.190 12197690.529 10 0 59418 45900.00000 0 -23401843.326 3910288.967 9349879.906 10 0 59418 46800.00000 0 -24365933.341 4076155.531 6320308.374 10 0 59418 47700.00000 0 -24936078.219 4281032.618 3167838.255 10 0 59418 48600.00000 0 -25102044.439 4469338.495 -46245.339 10 0 59418 49500.00000 0 -24867064.617 4585284.095 -3259430.605 10 0 59418 50400.00000 0 -24247651.433 4575478.640 -6409201.579 10 0 59418 51300.00000 0 -23272871.086 4391439.202 -9434262.444 10 0 59418 52200.00000 0 -21983106.748 3991896.495 -12275738.847 10 0 59418 53100.00000 0 -20428364.250 3344797.829 -14878331.700 10 0 59418 54000.00000 0 -18666191.698 2428921.028 -17191400.186 10 0 59418 54900.00000 0 -16759301.055 1235029.677 -19169952.180 10 0 59418 55800.00000 0 -14772992.259 -233480.254 -20775522.363 10 0 59418 56700.00000 0 -12772488.537 -1960470.789 -21976920.837 10 0 59418 57600.00000 0 -10820294.989 -3917494.851 -22750837.854 10 0 59418 58500.00000 0 -8973691.252 -6064754.253 -23082293.234 10 0 59418 59400.00000 0 -7282462.917 -8352543.256 -22964922.280 10 0 59418 60300.00000 0 -5786966.011 -10723117.832 -22401093.219 10 0 59418 61200.00000 0 -4516604.589 -13112912.863 -21401854.440 10 0 59418 62100.00000 0 -3488783.866 -15455015.122 -19986713.072 10 0 59418 63000.00000 0 -2708381.182 -17681789.238 -18183249.597 10 0 59418 63900.00000 0 -2167755.392 -19727547.380 -16026576.264 10 0 59418 64800.00000 0 -1847292.540 -21531151.722 -13558650.044 10 0 59418 65700.00000 0 -1716463.291 -23038441.521 -10827453.548 10 0 59418 66600.00000 0 -1735346.105 -24204383.892 -7886059.969 10 0 59418 67500.00000 0 -1856550.687 -24994859.016 -4791600.304 10 0 59418 68400.00000 0 -2027459.473 -25388005.728 -1604152.968 10 0 59418 69300.00000 0 -2192691.701 -25375071.857 1614422.391 10 0 59418 70200.00000 0 -2296685.357 -24960734.418 4801684.180 10 0 59418 71100.00000 0 -2286287.450 -24162876.967 7895817.877 10 0 59418 72000.00000 0 -2113242.963 -23011834.033 10836831.278 10 0 59418 72900.00000 0 -1736477.153 -21549134.827 13567712.939 10 0 59418 73800.00000 0 -1124074.758 -19825799.106 16035531.678 10 0 59418 74700.00000 0 -254872.449 -17900256.635 18192456.241 10 0 59418 75600.00000 0 880402.851 -15835977.025 19996675.999 10 0 59418 76500.00000 0 2278498.291 -13698908.542 21413205.602 10 0 59418 77400.00000 0 3923529.510 -11554832.100 22414558.661 10 0 59418 78300.00000 0 5787410.825 -9466739.925 22981278.127 10 0 59418 79200.00000 0 7830804.581 -7492347.114 23102313.579 10 0 59418 80100.00000 0 10004551.671 -5681838.774 22775238.355 10 0 59418 81000.00000 0 12251525.312 -4075945.615 22006302.276 10 0 59418 81900.00000 0 14508832.562 -2704427.287 20810318.545 10 0 59418 82800.00000 0 16710273.430 -1585026.079 19210386.317 10 0 59418 83700.00000 0 18788956.442 -722934.133 17237453.399 10 0 59418 84600.00000 0 20679962.676 -110796.083 14929726.412 10 0 59418 85500.00000 0 22322947.565 270753.141 12331938.802 10 0 59419 0.00000 0 23664572.012 452038.102 9494489.911 10 0 59419 900.00000 0 24660660.608 472824.597 6472470.618 10 0 59419 1800.00000 0 25277996.706 380397.496 3324595.027 10 0 59419 2700.00000 0 25495676.723 227316.372 112057.534 10 0 59419 3600.00000 0 25305967.717 68944.372 -3102661.296 10 0 59419 4500.00000 0 24714629.892 -39144.175 -6257016.543 10 0 59419 5400.00000 0 23740690.477 -43766.515 -9289623.725 10 0 59419 6300.00000 0 22415677.741 103366.957 -12141461.825 10 0 59419 7200.00000 0 20782347.263 443359.610 -14757029.978 10 0 59419 8100.00000 0 18892954.053 1008142.460 -17085434.482 10 0 59419 9000.00000 0 16807143.402 1818880.357 -19081384.255 10 0 59419 9900.00000 0 14589549.451 2884838.997 -20706074.879 10 0 59419 10800.00000 0 12307202.582 4202761.625 -21927943.930 10 0 59419 11700.00000 0 10026854.529 5756782.572 -22723283.047 10 0 59419 12600.00000 0 7812333.310 7518881.946 -23076695.151 10 0 59419 13500.00000 0 5722038.337 9449862.996 -22981388.494 10 0 59419 14400.00000 0 3806679.852 11500811.632 -22439302.390 10 0 59419 15300.00000 0 2107356.256 13614977.346 -21461062.768 10 0 59419 16200.00000 0 654048.444 15729997.163 -20065768.927 10 0 59419 17100.00000 0 -535407.462 17780369.980 -18280616.041 10 0 59419 18000.00000 0 -1455827.646 19700078.076 -16140361.038 10 0 59419 18900.00000 0 -2114648.980 21425246.547 -13686642.441 10 0 59419 19800.00000 0 -2531361.437 22896729.785 -10967167.457 10 0 59419 20700.00000 0 -2736430.061 24062517.103 -8034782.268 10 0 59419 21600.00000 0 -2769753.505 24879857.213 -4946443.634 10 0 59419 22500.00000 0 -2678725.441 25317013.032 -1762111.878 10 0 59419 23400.00000 0 -2515981.717 25354573.685 1456413.053 10 0 59419 24300.00000 0 -2336929.259 24986269.219 4646689.770 10 0 59419 25200.00000 0 -2197161.679 24219254.332 7746844.529 10 0 59419 26100.00000 0 -2149871.166 23073849.603 10696767.704 10 0 59419 27000.00000 0 -2243366.159 21582751.419 13439274.587 10 0 59419 27900.00000 0 -2518799.733 19789743.773 15921208.337 10 0 59419 28800.00000 0 -3008204.563 17747965.838 18094464.063 10 0 59419 29700.00000 0 -3732917.419 15517807.429 19916914.865 10 0 59419 30600.00000 0 -4702459.841 13164519.651 21353222.600 10 0 59419 31500.00000 0 -5913922.536 10755639.699 22375518.346 10 0 59419 32400.00000 0 -7351880.194 8358336.098 22963940.087 10 0 59419 33300.00000 0 -8988841.440 6036783.787 23107017.732 10 0 59419 34200.00000 0 -10786216.483 3849677.212 22801898.216 10 0 59419 35100.00000 0 -12695763.599 1847983.675 22054406.334 10 0 59419 36000.00000 0 -14661455.748 73029.424 20878939.742 10 0 59419 36900.00000 0 -16621690.960 -1445002.687 19298199.486 10 0 59419 37800.00000 0 -18511755.660 -2688102.042 17342760.376 10 0 59419 38700.00000 0 -20266439.195 -3650943.241 15050488.400 10 0 59419 39600.00000 0 -21822690.986 -4340862.032 12465815.424 10 0 59419 40500.00000 0 -23122209.410 -4777295.547 9638884.189 10 0 59419 41400.00000 0 -24113853.855 -4990710.589 6624579.361 10 0 59419 42300.00000 0 -24755778.157 -5021065.339 3481463.040 10 0 59419 43200.00000 0 -25017195.013 -4915869.784 270635.209 10 0 59419 44100.00000 0 -24879696.126 -4727927.417 -2945458.467 10 0 59419 45000.00000 0 -24338071.430 -4512854.469 -6104247.646 10 0 59419 45900.00000 0 -23400591.891 -4326482.746 -9144262.566 10 0 59419 46800.00000 0 -22088743.115 -4222257.219 -12006338.693 10 0 59419 47700.00000 0 -20436420.374 -4248739.866 -14634776.254 10 0 59419 48600.00000 0 -18488618.628 -4447326.756 -16978431.155 10 0 59419 49500.00000 0 -16299672.435 -4850276.228 -18991715.393 10 0 59419 50400.00000 0 -13931119.834 -5479132.601 -20635486.958 10 0 59419 51300.00000 0 -11449279.928 -6343612.937 -21877811.789 10 0 59419 52200.00000 0 -8922645.734 -7441004.604 -22694583.153 10 0 59419 53100.00000 0 -6419201.450 -8756099.537 -23069986.666 10 0 59419 54000.00000 0 -4003776.006 -10261668.467 -22996802.502 10 0 59419 54900.00000 0 -1735542.887 -11919455.529 -22476539.496 10 0 59419 55800.00000 0 334230.177 -13681651.737 -21519399.086 10 0 59419 56700.00000 0 2164088.883 -15492785.799 -20144070.352 10 0 59419 57600.00000 0 3723879.201 -17291953.219 -18377360.485 10 0 59419 58500.00000 0 4995752.857 -19015290.477 -16253668.226 10 0 59419 59400.00000 0 5974651.255 -20598590.822 -13814310.660 10 0 59419 60300.00000 0 6668249.461 -21979952.318 -11106716.546 10 0 59419 61200.00000 0 7096364.438 -23102347.311 -8183502.009 10 0 59419 62100.00000 0 7289854.187 -23916005.844 -5101446.597 10 0 59419 63000.00000 0 7289055.715 -24380513.293 -1920389.662 10 0 59419 63900.00000 0 7141828.974 -24466534.438 1297931.269 10 0 59419 64800.00000 0 6901290.384 -24157091.913 4491077.542 10 0 59419 65700.00000 0 6623332.423 -23448345.604 7597118.505 10 0 59419 66600.00000 0 6364034.496 -22349840.511 10555829.178 10 0 59419 67500.00000 0 6177074.764 -20884212.791 13309853.400 10 0 59419 68400.00000 0 6111252.241 -19086366.252 15805810.191 10 0 59419 69300.00000 0 6208223.693 -17002153.580 17995322.249 10 0 59419 70200.00000 0 6500550.692 -14686617.015 19835947.309 10 0 59419 71100.00000 0 7010139.111 -12201861.231 21291995.019 10 0 59419 72000.00000 0 7747136.863 -9614646.286 22335214.190 10 0 59419 72900.00000 0 8709336.669 -6993799.816 22945337.819 10 0 59419 73800.00000 0 9882109.658 -4407554.865 23110475.841 10 0 59419 74700.00000 0 11238873.603 -1920922.870 22827348.252 10 0 59419 75600.00000 0 12742077.491 406790.339 22101354.100 10 0 59419 76500.00000 0 14344662.704 2524223.481 20946474.614 10 0 59419 77400.00000 0 15991941.169 4389861.501 19385011.723 10 0 59419 78300.00000 0 17623813.330 5973521.745 17447166.110 10 0 59419 79200.00000 0 19177234.371 7257363.299 15170461.875 10 0 59419 80100.00000 0 20588826.218 8236377.763 12599027.894 10 0 59419 81000.00000 0 21797526.327 8918341.272 9782748.784 10 0 59419 81900.00000 0 22747162.117 9323230.100 6776301.078 10 0 59419 82800.00000 0 23388842.432 9482124.612 3638092.899 10 0 59419 83700.00000 0 23683064.690 9435648.157 429127.574 10 0 59419 84600.00000 0 23601447.915 9232007.287 -2788186.558 10 0 59419 85500.00000 0 23128017.439 8924716.788 -5951256.300 99